FW6732 Weather Reports


time (UTC)temp
C
wind
direction
speed
KPH
gust
KPH
rain 1hr
cm
rain 24hr
cm
rain mn
cm
humidity
%
barometer
mb
20260506015003 11 330 1.6 11.3 0.00 0.00 0.00 76 1011.1
20260506014504 11 336 1.6 11.3 0.00 0.00 0.00 76 1011.1
20260506014004 11 338 1.6 4.8 0.00 0.00 0.00 76 1011.0
20260506013504 11 346 1.6 14.5 0.00 0.00 0.00 76 1010.8
20260506013003 11 349 1.6 14.5 0.00 0.00 0.00 76 1010.6
20260506012525 11 344 1.6 12.9 0.00 0.00 0.00 76 1010.6
20260506012004 11 350 1.6 11.3 0.00 0.00 0.00 75 1010.5
20260506011504 11 335 1.6 14.5 0.00 0.00 0.00 75 1010.4
20260506011004 11 325 1.6 14.5 0.00 0.00 0.00 75 1010.4
20260506010503 11 344 1.6 12.9 0.00 0.00 0.00 75 1010.4
20260506010025 11 355 1.6 12.9 0.00 0.00 0.00 74 1010.2
20260506005503 11 358 1.6 8.0 0.00 0.00 0.00 74 1010.3
20260506005004 11 8 1.6 8.0 0.00 0.00 0.00 75 1010.0
20260506004504 11 352 1.6 8.0 0.00 0.00 0.00 74 1010.1
20260506004024 11 344 1.6 8.0 0.00 0.00 0.00 75 1010.1
20260506003503 11 10 1.6 8.0 0.00 0.00 0.00 74 1010.0
20260506003003 11 31 1.6 11.3 0.00 0.00 0.00 75 1010.2
20260506002504 11 4 3.2 12.9 0.00 0.00 0.00 74 1010.3
20260506002004 11 2 3.2 16.1 0.00 0.00 0.00 74 1010.0
20260506001504 12 19 1.6 16.1 0.00 0.00 0.00 74 1009.7
20260506001024 12 3 1.6 6.4 0.00 0.00 0.00 74 1009.5
20260506000504 12 351 1.6 8.0 0.00 0.00 0.00 74 1009.9
20260506000004 12 359 1.6 12.9 0.00 0.00 0.00 73 1009.9
20260505235525 12 25 1.6 12.9 0.00 0.00 0.00 73 1009.8
20260505235003 12 48 1.6 4.8 0.00 0.00 0.00 73 1009.8
20260505234524 12 66 1.6 4.8 0.00 0.00 0.00 72 1009.9
20260505234003 12 89 1.6 6.4 0.00 0.00 0.00 72 1009.8
20260505233503 12 87 1.6 6.4 0.00 0.00 0.00 72 1009.4
20260505233003 12 38 1.6 14.5 0.00 0.00 0.00 72 1009.7
20260505232524 12 29 1.6 14.5 0.00 0.00 0.00 72 1009.7
20260505232004 12 36 1.6 9.7 0.00 0.00 0.00 71 1009.8
20260505231503 12 358 1.6 9.7 0.00 0.00 0.00 71 1009.7
20260505231003 12 4 1.6 9.7 0.00 0.00 0.00 71 1009.7
20260505230504 12 54 1.6 8.0 0.00 0.00 0.00 71 1009.4
20260505230004 12 37 1.6 14.5 0.00 0.00 0.00 71 1008.9
20260505225504 12 14 3.2 14.5 0.00 0.00 0.00 71 1009.2
20260505225003 12 337 3.2 12.9 0.00 0.00 0.00 70 1009.0
20260505224503 12 338 3.2 12.9 0.00 0.00 0.00 70 1008.7
20260505224004 12 354 1.6 8.0 0.00 0.00 0.00 70 1008.6
20260505223503 12 2 3.2 8.0 0.00 0.00 0.00 70 1008.5
20260505223024 13 358 3.2 16.1 0.00 0.00 0.00 70 1008.6
20260505222503 13 16 3.2 16.1 0.00 0.00 0.00 70 1008.6
20260505222003 13 23 3.2 11.3 0.00 0.00 0.00 70 1008.4
20260505221503 13 358 3.2 16.1 0.00 0.00 0.00 70 1008.2
20260505221003 13 350 1.6 16.1 0.00 0.00 0.00 71 1007.9
20260505220503 13 8 1.6 6.4 0.00 0.00 0.00 72 1007.7
20260505220004 13 12 1.6 9.7 0.00 0.00 0.00 72 1008.0
20260505215503 13 17 1.6 11.3 0.00 0.00 0.00 71 1008.3
20260505215003 13 25 1.6 11.3 0.00 0.00 0.00 71 1008.5
20260505214524 13 349 1.6 8.0 0.00 0.00 0.00 72 1008.3
20260505214003 13 355 1.6 17.7 0.00 0.00 0.00 72 1008.1
20260505213525 13 15 1.6 17.7 0.00 0.00 0.00 72 1008.1
20260505213003 13 12 1.6 19.3 0.00 0.00 0.00 72 1008.2
20260505212503 13 354 3.2 19.3 0.00 0.00 0.00 72 1008.3
20260505212003 13 25 1.6 11.3 0.00 0.00 0.00 73 1008.2
20260505211503 13 73 1.6 12.9 0.00 0.00 0.00 73 1008.2
20260505211003 13 32 1.6 12.9 0.00 0.00 0.00 73 1008.0
20260505210503 13 21 1.6 12.9 0.00 0.00 0.00 73 1007.8
20260505210024 13 16 1.6 12.9 0.00 0.00 0.00 73 1007.8
20260505205503 13 14 1.6 12.9 0.00 0.00 0.00 74 1007.6
20260505205003 13 7 1.6 8.0 0.00 0.00 0.00 74 1007.7
20260505204503 13 356 1.6 16.1 0.00 0.00 0.00 75 1007.8
20260505204004 13 18 1.6 16.1 0.00 0.00 0.00 74 1008.1
20260505203503 13 52 1.6 20.9 0.00 0.00 0.00 75 1008.1
20260505203003 13 356 4.8 22.5 0.00 0.00 0.00 74 1008.2
20260505202503 13 346 4.8 22.5 0.00 0.00 0.00 74 1008.1
20260505202024 13 355 4.8 19.3 0.00 0.00 0.00 74 1007.8
20260505201524 13 351 3.2 19.3 0.00 0.00 0.00 75 1007.8
20260505201024 13 352 3.2 17.7 0.00 0.00 0.00 75 1007.7
20260505200503 13 15 3.2 16.1 0.00 0.00 0.00 76 1007.8
20260505200004 13 15 3.2 12.9 0.00 0.00 0.00 76 1007.6
20260505195503 13 358 3.2 14.5 0.00 0.00 0.00 75 1007.6
20260505195003 13 357 3.2 14.5 0.00 0.00 0.00 76 1007.6
20260505194524 13 5 3.2 12.9 0.00 0.00 0.00 76 1007.6
20260505194003 13 350 1.6 12.9 0.00 0.00 0.00 76 1007.7
20260505193503 13 352 1.6 11.3 0.00 0.00 0.00 76 1007.8
20260505193003 13 44 1.6 11.3 0.00 0.00 0.00 76 1007.7
20260505192503 13 50 1.6 17.7 0.00 0.00 0.00 76 1007.7
20260505192004 13 20 3.2 17.7 0.00 0.00 0.00 77 1007.4
20260505191524 13 6 3.2 14.5 0.00 0.00 0.00 77 1007.1
20260505191003 13 360 3.2 20.9 0.00 0.00 0.00 77 1007.1
20260505190524 13 348 3.2 20.9 0.00 0.00 0.00 78 1007.0
20260505190004 13 341 1.6 14.5 0.00 0.00 0.00 78 1007.0
20260505185503 13 358 1.6 16.1 0.00 0.00 0.00 79 1006.9
20260505185003 13 349 3.2 16.1 0.00 0.00 0.00 78 1006.9
20260505184524 13 4 3.2 12.9 0.00 0.00 0.00 78 1006.8
20260505184003 13 354 3.2 14.5 0.00 0.00 0.00 79 1007.0
20260505183503 13 8 3.2 14.5 0.00 0.00 0.00 79 1006.9
20260505183003 13 52 1.6 9.7 0.00 0.00 0.00 79 1006.9
20260505182503 13 355 1.6 9.7 0.00 0.00 0.00 79 1006.7
20260505182004 13 10 1.6 9.7 0.00 0.00 0.00 80 1006.8
20260505181503 13 26 1.6 6.4 0.00 0.00 0.00 80 1006.8
20260505181003 13 12 3.2 8.0 0.00 0.00 0.00 80 1006.9
20260505180503 13 3 3.2 12.9 0.00 0.00 0.00 80 1006.9
20260505180025 13 3 3.2 12.9 0.00 0.00 0.00 81 1006.9
20260505175503 13 7 1.6 12.9 0.00 0.00 0.00 81 1006.5
20260505175024 13 360 1.6 9.7 0.00 0.00 0.00 81 1006.4
20260505174504 13 336 1.6 9.7 0.00 0.00 0.00 81 1006.2
20260505174024 13 316 1.6 9.7 0.00 0.00 0.00 81 1006.0
20260505173503 14 349 1.6 12.9 0.00 0.00 0.00 82 1006.2
20260505173024 13 3 3.2 14.5 0.00 0.00 0.00 81 1006.2
20260505172504 14 337 3.2 14.5 0.00 0.00 0.00 81 1006.1
20260505172003 14 329 1.6 8.0 0.00 0.00 0.00 82 1006.1
20260505171504 14 335 0.0 6.4 0.00 0.00 0.00 82 1006.2
20260505171003 14 340 1.6 12.9 0.00 0.00 0.00 82 1006.3
20260505170503 14 349 3.2 16.1 0.00 0.00 0.00 81 1006.3
20260505170003 14 341 3.2 16.1 0.00 0.00 0.00 81 1005.9
20260505165503 14 329 3.2 12.9 0.00 0.00 0.00 81 1005.7
20260505165003 14 334 3.2 14.5 0.00 0.00 0.00 81 1005.6
20260505164503 15 3 3.2 19.3 0.00 0.00 0.00 81 1005.6
20260505164024 15 5 3.2 19.3 0.00 0.00 0.00 81 1005.6
20260505163503 15 346 3.2 16.1 0.00 0.00 0.00 81 1005.1
20260505163003 15 9 3.2 16.1 0.00 0.00 0.00 81 1005.1
20260505162503 15 74 1.6 9.7 0.00 0.00 0.00 80 1005.1
20260505162003 15 11 3.2 17.7 0.00 0.00 0.00 80 1005.0
20260505161503 15 357 4.8 25.7 0.00 0.00 0.00 80 1005.1
20260505161003 15 357 3.2 25.7 0.00 0.00 0.00 79 1004.8
20260505160503 16 18 3.2 17.7 0.00 0.00 0.00 79 1004.8
20260505153003 17 341 1.6 12.9 0.00 0.00 0.00 77 1004.3
20260505152503 18 358 1.6 12.9 0.00 0.00 0.00 76 1004.3
20260505152003 18 6 1.6 11.3 0.00 0.00 0.00 76 1004.1
20260505151503 19 340 1.6 11.3 0.00 0.00 0.00 77 1004.0
20260505151003 19 34 1.6 6.4 0.00 0.00 0.00 78 1003.9
20260505150524 20 51 1.6 6.4 0.00 0.00 0.00 79 1003.9
20260505140503 20 76 0.0 1.6 0.00 0.00 0.00 82 1002.9
20260505125024 19 90 1.6 8.0 0.00 0.00 0.00 82 1002.8
20260505124503 19 93 1.6 8.0 0.00 0.00 0.00 82 1002.8
20260505124003 19 89 0.0 4.8 0.00 0.00 0.00 82 1002.9
20260505123503 19 94 1.6 4.8 0.00 0.00 0.00 82 1002.7
20260505123024 19 96 1.6 4.8 0.00 0.00 0.00 82 1002.6
20260505122503 19 102 1.6 4.8 0.00 0.00 0.00 82 1002.5
20260505122003 19 100 1.6 4.8 0.00 0.00 0.00 82 1002.4
20260505121503 19 93 1.6 4.8 0.00 0.00 0.00 82 1002.2
20260505121024 19 91 1.6 4.8 0.00 0.00 0.00 82 1002.2
20260505120503 19 106 1.6 6.4 0.00 0.00 0.00 82 1002.4
20260505120004 19 137 1.6 6.4 0.00 0.00 0.00 82 1002.3
20260505115503 19 140 0.0 3.2 0.00 0.00 0.00 82 1002.4
20260505115024 19 141 0.0 4.8 0.00 0.00 0.00 82 1002.4
20260505114524 19 143 0.0 4.8 0.00 0.00 0.00 82 1002.4
20260505114003 19 179 0.0 6.4 0.00 0.00 0.00 82 1002.2
20260505113503 19 122 1.6 6.4 0.00 0.00 0.00 82 1002.1
20260505113024 19 96 0.0 4.8 0.00 0.00 0.00 82 1001.9
20260505112503 19 116 1.6 4.8 0.00 0.00 0.00 82 1002.1
20260505112003 19 116 1.6 4.8 0.00 0.00 0.00 82 1002.0
20260505111503 19 104 0.0 4.8 0.00 0.00 0.00 82 1002.0
20260505111003 19 115 1.6 6.4 0.00 0.00 0.00 82 1001.9
20260505110524 19 146 1.6 6.4 0.00 0.00 0.00 82 1001.9
20260505102003 19 104 0.0 4.8 0.00 0.00 0.00 81 1001.4
20260505101503 19 126 1.6 4.8 0.00 0.00 0.00 80 1001.4
20260505101003 19 122 1.6 4.8 0.00 0.00 0.00 80 1001.3
20260505100503 19 102 1.6 6.4 0.00 0.00 0.00 80 1001.2
20260505100003 20 109 1.6 6.4 0.00 0.00 0.00 79 1001.0
20260505095524 20 113 1.6 6.4 0.00 0.00 0.00 79 1001.0
20260505095003 20 112 1.6 6.4 0.00 0.00 0.00 79 1001.1
20260505094503 20 113 1.6 8.0 0.00 0.00 0.00 79 1001.0
20260505094003 20 113 1.6 8.0 0.00 0.00 0.00 78 1000.9
20260505093524 20 104 1.6 6.4 0.00 0.00 0.00 78 1000.9
20260505093003 20 95 1.6 4.8 0.00 0.00 0.00 78 1000.9
20260505092503 20 95 1.6 4.8 0.00 0.00 0.00 77 1000.8
20260505092024 20 100 1.6 6.4 0.00 0.00 0.00 77 1000.9
20260505091503 20 113 3.2 6.4 0.00 0.00 0.00 77 1000.9
20260505091003 20 117 3.2 6.4 0.00 0.00 0.00 77 1001.1
20260505090503 20 105 1.6 6.4 0.00 0.00 0.00 77 1001.1
20260505090024 20 94 1.6 6.4 0.00 0.00 0.00 76 1001.2
20260505085503 20 99 1.6 6.4 0.00 0.00 0.00 76 1001.1
20260505085024 20 97 0.0 4.8 0.00 0.00 0.00 76 1001.1
20260505084503 20 74 0.0 6.4 0.00 0.00 0.00 76 1001.2
20260505084003 20 98 0.0 6.4 0.00 0.00 0.00 76 1001.1
20260505083503 20 126 1.6 4.8 0.00 0.00 0.00 76 1001.2
20260505083004 20 110 1.6 9.7 0.00 0.00 0.00 76 1001.1
20260505082503 20 100 1.6 9.7 0.00 0.00 0.00 76 1001.3
20260505082003 20 87 0.0 3.2 0.00 0.00 0.00 76 1001.3
20260505081503 20 79 0.0 3.2 0.00 0.00 0.00 75 1001.4
20260505081003 20 86 1.6 8.0 0.00 0.00 0.00 75 1001.3
20260505080503 21 94 1.6 8.0 0.00 0.00 0.00 75 1001.3
20260505080004 21 109 1.6 4.8 0.00 0.00 0.00 75 1001.4
20260505075525 21 111 1.6 4.8 0.00 0.00 0.00 75 1001.4
20260505075004 21 109 1.6 4.8 0.00 0.00 0.00 75 1001.5
20260505074525 21 107 0.0 3.2 0.00 0.00 0.00 75 1001.5
20260505074004 21 106 0.0 4.8 0.00 0.00 0.00 75 1001.7
20260505073504 21 114 1.6 6.4 0.00 0.00 0.00 75 1001.8
20260505073004 21 125 0.0 6.4 0.00 0.00 0.00 74 1001.9
20260505072504 21 128 0.0 4.8 0.00 0.00 0.00 74 1002.0
20260505072004 21 128 0.0 1.6 0.00 0.00 0.00 74 1002.0
20260505071504 21 128 0.0 1.6 0.00 0.00 0.00 74 1002.1
20260505071004 21 134 0.0 1.6 0.00 0.00 0.00 75 1002.1
20260505070504 21 152 0.0 3.2 0.00 0.00 0.00 74 1002.2
20260505070025 21 176 0.0 3.2 0.00 0.00 0.00 74 1002.3
20260505065504 21 213 0.0 1.6 0.00 0.00 0.00 75 1002.4
20260505065004 21 0 0.0 0.0 0.00 0.00 0.00 74 1002.5
20260505064525 21 0 0.0 0.0 0.00 0.00 0.00 74 1002.3
20260505064025 21 0 0.0 0.0 0.00 0.00 0.00 74 1002.5
20260505063504 21 0 0.0 0.0 0.00 0.00 0.00 73 1002.6
20260505063004 21 0 0.0 0.0 0.00 0.00 0.00 73 1002.8
20260505062504 21 0 0.0 0.0 0.00 0.00 0.00 73 1002.8
20260505062025 21 0 0.0 0.0 0.00 0.00 0.00 73 1002.8
20260505061504 21 0 0.0 0.0 0.00 0.00 0.00 73 1002.6
20260505061004 21 0 0.0 0.0 0.00 0.00 0.00 73 1002.5
20260505060504 21 0 0.0 0.0 0.00 0.00 0.00 73 1002.2
20260505060005 21 214 0.0 1.6 0.00 0.00 0.00 73 1002.0
20260505055504 21 214 0.0 1.6 0.00 0.00 0.00 73 1001.9
20260505055004 21 147 0.0 4.8 0.00 0.00 0.00 72 1001.8
20260505054504 21 126 0.0 4.8 0.00 0.00 0.00 72 1001.7
20260505054004 21 334 0.0 4.8 0.00 0.00 0.00 72 1001.7
20260505053504 21 273 0.0 4.8 0.00 0.00 0.00 72 1001.6
20260505053004 21 212 1.6 4.8 0.00 0.00 0.00 71 1001.8
20260505052525 21 162 1.6 4.8 0.00 0.00 0.00 71 1001.8
20260505052025 21 163 1.6 4.8 0.00 0.00 0.00 71 1001.8
20260505051504 21 211 1.6 6.4 0.00 0.00 0.00 71 1002.0
20260505051004 21 201 0.0 6.4 0.00 0.00 0.00 71 1001.8
20260505050504 21 137 1.6 3.2 0.00 0.00 0.00 70 1001.8
20260505041504 22 129 3.2 6.4 0.00 0.00 0.00 68 1001.3
20260505041004 22 116 3.2 6.4 0.00 0.00 0.00 67 1001.5
20260505040504 22 72 3.2 4.8 0.00 0.00 0.00 67 1001.7
20260505040005 22 351 1.6 4.8 0.00 0.00 0.00 67 1001.7
20260505035504 22 227 1.6 6.4 0.00 0.00 0.00 66 1001.9
20260505035025 22 141 1.6 9.7 0.00 0.00 0.00 66 1002.0
20260505034525 22 108 1.6 9.7 0.00 0.00 0.00 66 1002.1
20260505034004 22 104 1.6 9.7 0.00 0.00 0.00 66 1002.0
20260505033504 22 82 1.6 9.7 0.00 0.00 0.00 66 1002.4
20260505033004 22 78 1.6 8.0 0.00 0.00 0.00 65 1002.3
20260505032504 22 115 1.6 6.4 0.00 0.00 0.00 65 1002.3
20260505032004 22 143 1.6 6.4 0.00 0.00 0.00 65 1002.4
20260505031504 22 173 1.6 4.8 0.00 0.00 0.00 64 1002.5
20260505031025 22 224 0.0 4.8 0.00 0.00 0.00 64 1002.5
20260505030504 22 212 1.6 4.8 0.00 0.00 0.00 64 1002.6
20260505030025 22 78 1.6 6.4 0.00 0.00 0.00 64 1002.6
20260505025504 22 94 1.6 6.4 0.00 0.00 0.00 64 1002.6
20260505025004 22 108 1.6 6.4 0.00 0.00 0.00 64 1002.6
20260505024504 22 53 0.0 6.4 0.00 0.00 0.00 64 1002.6
20260505024004 22 248 1.6 8.0 0.00 0.00 0.00 64 1002.8
20260505023504 22 181 1.6 8.0 0.00 0.00 0.00 64 1002.8
20260505023004 22 121 1.6 8.0 0.00 0.00 0.00 63 1002.9
20260505022525 22 157 1.6 6.4 0.00 0.00 0.00 63 1002.9
20260505022004 23 203 1.6 6.4 0.00 0.00 0.00 63 1002.6
20260505021504 23 225 1.6 6.4 0.00 0.00 0.00 63 1002.6
20260505021025 23 204 1.6 4.8 0.00 0.00 0.00 63 1002.6
20260505020504 23 131 1.6 6.4 0.00 0.00 0.00 63 1002.6
20260505020004 23 96 1.6 6.4 0.00 0.00 0.00 63 1002.7